2021-091H (49322 NORAD) Tracking and Keplerian Element Data

This shows tracking and keplerian element data for the satellite.

Feedback or suggestion? Click here.




ElementValue
Catalog49322
Name2021-091H
Epoch Orbit3313
Epoch Day140.7982077
Epoch Year2022
RAAN328.6548
Inclination97.4621
Eccentricity0.0015251
Argument of Perigee223.2403
Mean Anonmoly232.599
Mean Motion15.19119508
Decay Rate6.254E-05
L11 49322U 21091H 22140.79820770 .00006254 00000+0 30021-3 0 9997
L22 49322 97.4621 328.6548 0015251 223.2403 232.5990 15.19119508 33137

Live tracking and technical data element details for 2021-091H (NORAD 49322). 2021-091H can be tracked NOW for your location showing map with azimuth and elevation plus other details from your city location.

Track the satellite on the map from your city or location and see movement details for azimuth, elevation, latitude, longitude, range, height, and movement on the map or in text.







IsCatalogInMostPopularTable: catalog: 49322, numindb: 31
Update: records affected: 1



GetName: 49322 2021-091H

Hit Count: updated at: Sun, 22 May 2022 06:49:22 GMT